CAPE
0 0 0 0 0 0 0 0 0 0 0 0 0 0 0 0 0 0 0 0 0 0 0 0 0 0 0 0 0 0 0 0 4 13 20 29 19 18
0 0 0 0 0 0 0 0 0 0 0 0 0 0 0 0 0 0 0 0 0 0 0 0 0 0 0 0 0 0 0 0 0 0 1 6 23 19
2 0 0 0 0 0 0 0 0 0 0 0 0 0 0 0 0 0 0 0 0 0 0 0 0 0 0 0 0 0 0 0 0 0 0 0 5 17
25 6 3 8 7 4 7 0 0 0 0 0 0 9 14 0 0 0 0 0 0 0 0 0 0 0 0 0 0 0 0 0 0 0 0 0 0 1
80 20 10 28 3 1 1 7 10 4 1 3 1 8 9 8 4 2 0 0 0 0 0 0 0 0 0 0 0 0 0 0 0 0 0 0 0 0
37 53 55 44 51 85 8 10 7 12 5 2 1 2 4 4 1 1 0 0 0 0 0 0 0 0 0 0 0 0 0 0 0 0 0 0 0 0
78 73 53 40 33 45 67 26 16 8 5 2 2 2 1 1 0 0 0 0 0 4 2 0 0 0 0 0 0 0 0 0 0 0 0 0 0 0
82 134 300 9 1 0 0 0 0 19 1 3 0 1 0 3 4 1 3 1 1 0 1 5 0 0 0 0 0 0 0 0 0 0 0 0 0 0
40 140 141 50 6 212 35 1 1 1 1 1 2 1 1 0 2 1 1 1 2 9 0 4 0 0 0 0 0 0 0 0 0 0 0 0 0 0
12 16 49 51 130 65 126 153 39 0 0 0 2 2 5 31 43 14 3 1 0 1 0 0 0 1 1 2 0 0 0 0 0 0 0 0 0 0
4 8 1 6 0 0 0 2 2 5 35 0 0 0 0 0 3 16 2 5 0 0 0 0 0 0 1 22 5 0 0 0 0 0 0 0 0 0
0 0 0 0 0 0 0 2 5 3 7 0 0 0 0 0 1 0 0 0 0 0 0 0 1 1 0 0 6 2 0 0 0 0 0 0 0 0
0 1 1 0 0 0 0 2 3 0 1 2 3 4 8 12 16 1 1 2 0 0 0 0 0 0 0 0 0 0 0 1 1 2 0 0 0 0
5 5 2 0 0 0 0 0 0 0 7 8 7 11 18 17 19 20 19 24 14 9 12 2 0 0 0 0 0 0 0 1 1 2 3 0 0 0
0 0 0 0 0 0 0 0 0 6 6 5 2 3 15 17 14 7 0 0 6 24 36 23 48 49 27 2 0 0 0 0 0 0 1 0 0 0
0 0 0 0 0 0 0 0 7 7 14 15 6 5 14 20 20 22 26 30 49 40 5 12 21 43 47 58 20 0 0 0 0 0 0 0 0 0
0 1 1 2 3 4 5 5 8 7 7 9 10 14 13 18 18 23 18 14 13 20 22 13 9 23 2 0 0 0 1 0 0 0 0 0 0 0
1 5 4 5 6 6 10 9 7 9 11 11 12 11 10 9 11 11 16 14 8 5 12 11 4 1 0 0 2 1 0 0 0 1 0 0 0 0
5 3 4 5 9 6 7 11 13 11 9 10 9 8 8 8 6 7 5 8 3 6 7 7 5 0 0 0 0 1 0 0 0 0 0 1 2 4
3 6 6 6 9 7 7 9 12 11 9 6 4 4 5 5 3 6 5 5 3 3 5 6 4 2 0 3 4 1 0 0 1 3 7 11 8 0
4 5 8 9 9 9 9 8 9 9 8 9 4 3 2 3 5 5 5 1 1 10 15 13 7 0 10 2 2 5 3 1 1 14 14 13 9 11
6 4 3 5 3 3 4 8 6 7 8 10 10 9 3 6 6 9 11 15 21 8 8 10 20 16 14 5 7 5 8 6 3 1 0 0 4 5
5 5 8 6 5 4 5 6 5 4 6 7 5 2 6 1 4 7 11 13 20 17 17 17 20 24 20 15 12 12 8 9 5 3 7 0 0 0
CIN
0 0 0 0 0 0 0 0 0 0 0 0 0 0 0 0 0 0 0 0 0 0 0 0 0 0 0 0 0 0 0 0 0 0 0 0 0 0
0 0 0 0 0 0 0 0 0 0 0 0 0 0 0 0 0 0 0 0 0 0 0 0 0 0 0 0 0 0 0 0 0 0 0 0 0 0
0 0 0 0 0 0 0 0 0 0 0 0 0 0 0 0 0 0 0 0 0 0 0 0 0 0 0 0 0 0 0 0 0 0 0 0 0 0
-86 0 -68 0 0 0 0 0 0 0 0 0 0 0 0 0 0 0 0 0 0 0 0 0 0 0 0 0 0 0 0 0 0 0 0 0 0 0
-52 -56 -116 -82 0 -28 0 0 -19 0 -1 0 0 0 0 0 0 0 0 0 0 0 0 0 0 0 0 0 0 0 0 0 0 0 0 0 0 0
-87 -65 -66 -73 -61 -59 -127 -100 -46 0 0 0 0 0 0 0 -1 0 0 -1 0 0 0 0 0 0 0 0 0 0 0 0 0 0 0 0 0 0
-49 -56 -55 -66 -63 -54 -24 -27 -29 0 0 0 0 0 0 0 0 0 0 0 0 0 0 0 0 0 0 0 0 0 0 0 0 0 0 0 0 0
-35 -19 -5 -15 -1 0 0 0 0 -4 0 0 -1 0 0 -1 -1 0 0 0 0 0 0 0 0 0 0 0 0 0 0 0 0 0 0 0 0 0
-16 -4 -3 -12 -18 0 -2 0 0 0 0 -19 -13 0 0 0 -42 0 0 0 0 -2 0 0 0 0 0 0 0 0 0 0 0 0 0 0 0 0
-3 -5 -28 -15 -1 -6 -1 0 -48 -6 0 0 0 0 0 -39 -24 -6 -3 -12 -1 -1 0 0 0 -1 0 0 0 0 0 0 0 0 0 0 0 0
0 -4 0 -1 0 0 0 0 0 -26 -69 0 0 0 0 0 -5 -2 -10 -9 0 0 -1 0 0 -1 -1 0 0 0 0 0 0 0 0 0 0 0
0 0 0 0 0 0 0 0 0 0 0 0 0 0 0 0 0 0 0 0 0 0 0 0 0 0 0 0 0 0 0 0 0 0 0 0 0 0
0 0 0 0 0 0 0 0 0 0 0 0 0 0 0 0 -1 -1 0 0 0 0 -1 0 0 0 0 0 0 0 0 0 0 0 0 0 0 0
0 0 0 0 0 0 0 0 0 0 0 0 0 0 0 0 0 0 0 -1 -1 0 0 -5 0 0 0 0 0 0 0 0 0 0 0 0 0 0
0 0 0 0 0 0 0 0 0 0 0 0 0 0 0 0 0 0 0 0 0 0 0 -1 -1 0 -11 -5 0 0 0 0 0 0 0 0 0 0
0 0 0 0 0 0 0 0 0 0 0 0 0 0 0 0 0 0 0 -11 0 0 0 -2 -1 -1 -1 0 -1 0 -1 0 0 0 0 0 0 0
0 0 0 0 0 0 0 0 0 0 0 0 0 0 0 0 0 0 0 0 0 0 0 0 0 -13 -1 0 0 0 0 0 0 0 0 0 0 0
0 0 0 0 0 0 0 0 0 0 0 0 0 0 0 0 0 0 0 0 0 0 0 0 0 0 0 0 0 0 0 0 0 0 0 0 0 0
0 0 0 0 0 0 0 0 0 0 0 0 0 0 0 0 0 0 0 0 0 0 0 0 0 0 0 0 0 0 0 0 0 0 0 0 0 0
0 0 0 0 0 0 0 0 0 0 0 0 0 0 0 0 0 0 0 0 0 0 0 0 0 0 0 0 0 0 0 0 0 0 0 0 0 0
0 0 0 0 0 0 0 0 0 0 0 0 0 0 0 0 0 0 0 0 0 0 0 0 0 0 0 0 0 0 0 0 0 0 0 0 0 0
0 0 0 0 0 0 0 0 0 0 0 0 0 0 0 0 0 0 0 0 0 0 0 0 0 0 0 0 0 0 0 0 0 0 0 0 0 0
0 0 0 0 0 0 0 0 0 0 0 0 0 0 0 0 0 0 0 0 0 0 0 0 0 0 0 0 0 0 0 0 0 0 0 0 0 0
Wind_Speed
13 14 13 11 10 10 10 10 9 9 11 10 5 9 8 9 11 11 13 17 21 24 24 25 26 27 27 26 27 27 27 26 25 24 24 23 25 25
10 15 15 12 12 11 10 10 10 11 12 9 10 10 7 7 10 13 14 16 17 18 23 25 26 27 27 28 28 28 28 28 27 27 26 25 25 26
13 15 18 16 12 11 10 10 10 11 13 13 12 11 12 14 10 11 13 11 10 21 23 24 26 27 27 27 29 29 29 29 29 29 28 28 28 27
16 15 17 11 17 13 11 14 12 12 10 18 13 11 14 14 14 15 11 11 12 15 21 24 26 27 28 28 28 29 30 29 29 29 29 30 30 30
16 14 16 16 13 11 12 12 12 11 11 11 14 11 10 9 12 12 12 12 13 18 17 21 24 26 28 29 29 30 29 29 29 30 30 30 30 30
15 14 14 15 17 16 13 14 13 12 10 10 11 12 10 11 9 10 9 9 12 12 15 17 17 24 28 27 27 28 28 29 30 31 31 31 30 30
12 12 12 13 15 15 10 13 12 11 10 10 10 11 11 8 8 9 10 11 15 12 10 11 10 11 14 23 23 28 29 31 32 32 32 32 31 31
12 15 15 14 16 18 19 19 17 13 12 11 11 12 13 10 11 11 12 11 12 8 11 13 10 11 11 12 21 26 26 31 30 31 33 34 33 32
11 10 9 8 10 15 15 19 20 21 22 18 17 14 14 12 13 13 12 13 14 11 11 13 10 13 13 13 20 24 26 29 30 33 33 33 33 31
11 11 10 10 10 10 13 15 14 13 14 13 18 19 19 17 16 14 15 16 15 12 7 14 10 13 13 13 17 24 29 30 30 31 31 32 32 31
6 6 7 7 12 11 8 8 11 11 10 17 21 20 19 20 20 13 12 11 13 12 8 10 10 12 12 14 13 21 26 29 31 31 31 32 32 32
6 7 10 11 12 10 6 7 9 9 9 11 11 11 12 15 20 16 14 14 13 14 9 7 12 8 6 10 13 12 13 24 30 31 31 30 29 13
5 6 6 13 11 11 8 5 9 10 9 9 9 9 10 10 8 9 13 14 13 16 9 7 7 10 10 12 5 8 11 12 12 15 27 27 28 23
6 7 8 15 12 7 8 12 13 8 7 8 8 7 7 7 8 10 12 12 11 18 16 12 8 11 14 14 13 10 11 13 12 11 11 13 25 25
6 7 7 10 12 10 15 14 10 9 9 9 9 9 10 11 13 11 10 13 15 17 15 17 14 18 15 15 13 15 13 7 10 11 10 8 7 6
7 7 6 6 6 6 8 11 10 10 10 10 10 11 10 9 10 10 11 11 12 12 14 15 17 18 17 17 17 14 11 9 7 8 4 3 4 4
5 7 9 10 10 10 10 10 9 9 8 8 9 10 11 11 11 10 10 11 11 12 13 12 16 19 5 5 6 5 4 3 3 8 8 8 7 5
7 9 9 9 9 10 10 10 10 11 9 9 9 9 9 10 10 11 10 9 10 10 12 11 11 7 1 7 15 5 3 4 6 10 10 14 11 8
8 8 8 9 8 8 9 9 9 9 11 8 9 9 9 9 11 10 9 9 10 9 8 9 8 6 5 3 6 25 6 8 10 11 11 11 12 10
7 8 8 9 9 9 10 9 9 9 9 9 9 9 9 9 10 9 8 8 8 8 7 7 9 7 4 5 5 10 24 9 12 13 15 14 14 22
8 7 7 8 8 9 9 9 10 9 10 10 8 9 9 8 9 9 8 10 9 7 9 10 9 7 6 7 13 13 14 28 17 11 10 12 11 11
6 6 7 7 7 8 9 9 9 9 10 9 9 9 9 8 8 9 9 9 8 7 8 8 9 10 10 14 13 15 12 13 21 29 24 14 2 5
5 6 6 7 7 7 8 9 9 9 9 10 9 10 8 9 9 9 9 9 10 9 9 9 9 10 12 12 13 11 17 14 11 13 14 24 25 24
Wind_Direction
219 221 226 231 233 233 235 232 234 262 264 269 244 203 221 229 237 231 235 239 226 227 230 234 234 233 234 235 236 238 240 241 243 245 248 250 249 249
220 228 232 234 236 233 234 239 234 240 262 252 250 247 205 225 232 230 237 235 227 227 231 229 234 236 233 231 232 234 236 237 238 239 240 243 243 246
225 229 237 231 237 236 232 235 236 234 249 259 265 259 246 241 236 228 235 231 240 225 229 233 233 235 237 234 232 230 231 232 234 237 237 238 240 241
226 227 237 238 237 238 232 229 230 232 235 258 259 260 245 249 256 256 244 238 240 234 222 224 233 233 234 232 231 233 231 230 229 231 233 234 234 236
231 225 230 236 227 227 225 232 232 230 229 239 256 259 255 250 255 253 252 247 246 244 232 229 234 231 233 235 233 231 233 233 230 228 228 229 232 234
237 234 233 235 235 238 231 230 234 239 236 237 243 254 250 248 238 250 254 232 252 241 233 234 235 234 234 236 232 233 233 233 232 231 229 227 226 228
236 237 235 239 242 243 244 245 242 239 238 243 246 246 246 240 226 241 243 253 252 250 248 241 227 232 233 235 236 234 234 235 234 233 233 232 228 226
252 252 249 233 238 231 234 244 249 249 244 246 251 245 243 242 244 236 241 248 265 204 239 253 228 231 237 229 227 229 227 231 234 236 235 231 229 227
265 264 262 263 243 253 241 238 245 241 240 255 259 249 255 248 250 255 241 244 250 250 234 258 233 239 241 240 226 221 224 230 229 230 234 234 233 232
256 259 263 268 263 257 258 263 252 239 235 237 245 254 254 255 254 254 258 258 257 252 222 258 241 248 245 247 224 223 226 229 230 233 232 231 231 231
310 315 334 314 33 1 330 303 291 282 263 241 248 252 245 246 247 264 262 261 265 257 236 244 248 257 248 247 242 217 227 230 232 231 230 228 227 228
5 358 68 20 340 329 329 311 298 298 303 308 299 283 259 258 247 245 257 260 259 273 239 223 251 245 262 231 240 242 234 230 232 234 231 232 231 227
359 350 5 357 334 344 355 359 315 308 291 281 281 280 281 277 262 238 241 244 251 254 249 207 242 242 238 261 235 226 229 233 228 230 235 233 231 216
16 5 0 339 345 347 349 344 332 306 319 309 302 301 304 308 306 300 284 263 256 264 273 253 259 240 244 249 253 240 226 228 225 225 226 224 228 224
15 14 350 343 354 3 358 350 337 350 338 326 321 315 315 309 309 304 294 287 283 275 271 268 261 264 254 254 263 255 252 224 218 222 223 215 203 193
11 23 11 7 20 354 3 9 1 352 340 336 325 318 311 309 305 309 303 301 293 289 286 280 273 269 270 264 262 263 244 242 192 200 132 92 93 134
346 26 25 17 11 6 1 357 354 352 343 330 321 321 322 318 312 308 306 303 293 295 298 299 293 281 288 23 314 336 332 33 88 121 104 90 60 56
36 32 25 17 10 359 354 350 350 345 338 328 324 319 316 317 316 315 302 304 300 297 299 308 306 294 77 61 38 328 44 78 82 93 100 100 78 59
36 26 20 12 1 356 351 346 338 335 330 330 325 323 321 317 319 317 317 313 312 310 317 321 312 292 258 74 332 9 50 74 90 78 79 79 89 77
34 23 15 7 359 357 353 347 339 334 336 335 330 329 327 324 323 326 327 325 324 324 337 357 8 10 59 78 85 40 35 67 82 86 87 85 84 86
20 17 4 359 354 349 347 341 340 338 337 336 335 334 335 335 336 337 340 349 353 359 12 14 8 16 85 98 74 60 53 51 57 81 92 89 89 87
4 357 356 354 353 349 344 341 342 342 342 341 338 338 344 344 351 352 2 5 11 22 28 26 20 49 63 75 81 76 67 63 56 57 54 57 83 98
346 346 345 346 344 347 348 345 346 347 344 344 340 346 343 356 3 11 24 28 30 35 41 45 39 38 49 58 68 72 71 63 62 65 57 57 72 82